Gainesville, FL

9:23 PM EST on December 08, 2019 (GMT -0500)
Gainesville Regional

Weather History for KGNV - October, 2019

Change the Weather History Date:

Wednesday, October 16, 2019

  Actual Average Record
Temperature  
Mean Temperature 80 °F 71 °F  
Max Temperature 88 °F 81 °F 94 °F (1925)
Min Temperature 71 °F 61 °F 40 °F (1978)
Degree Days  
Heating Degree Days 0 1  
Month to date heating degree days 0 4  
Since 1 July heating degree days 0 4  
Cooling Degree Days 15 7  
Month to date cooling degree days 197 136  
Year to date cooling degree days 3213 2476  
Growing Degree Days 28 (Base 50)    
Moisture  
Dew Point 71 °F    
Average Humidity 77    
Maximum Humidity 93    
Minimum Humidity 61    
Precipitation  
Precipitation 0.03 in 0.10 in 3.38 in (1947)
Month to date precipitation 1.89 1.79  
Year to date precipitation 40.13 41.78  
Snow  
Snow 0.00 in 0.00 in 0.00 in ()
Month to date snowfall 0.0 0.0  
Since 1 July snowfall 0.0 0.0  
Since 1 September snowfall 0.0 0.0  
Snow Depth 0.00 in    
Sea Level Pressure  
Sea Level Pressure 29.90 in    
Wind  
Wind Speed 9 mph (SW)    
Max Wind Speed 23 mph    
Max Gust Speed 30 mph    
Visibility 10 miles    
Events Rain    
T = Trace of Precipitation, MM = Missing Value Source: NWS Daily Summary

Daily Weather History Graph

Daily Weather History Graph

Search for Another Location

Airport or City:

Astronomy

Oct. 16, 2019 Rise Set
Actual Time 7:31 AM EDT 6:57 PM EDT
Civil Twilight 7:07 AM EDT 7:21 PM EDT
Nautical Twilight 6:39 AM EDT 7:49 PM EDT
Astronomical Twilight 6:11 AM EDT 8:17 PM EDT
Moon 9:00 PM EDT (10/16) 9:52 AM EDT (10/16)
Length of Visible Light 12h 14m
Length of Day
11h 26m
Waning Gibbous, 93% of the Moon is Illuminated
Oct 16
Waning Gibbous
Oct 21
Last Quarter
Oct 27
New
Nov 4
First Quarter
Nov 12
Full

Hourly Weather History & Observations

Time (EDT) Temp. Heat Index Dew Point Humidity Pressure Visibility Wind Dir Wind Speed Gust Speed Precip Events Conditions
12:53 AM 75.9 °F - 69.1 °F 79% 29.97 in 10.0 mi South 5.8 mph - N/A   Mostly Cloudy
1:36 AM 75.0 °F - 69.1 °F 82% 29.97 in 10.0 mi SSW 6.9 mph - 0.00 in Rain Light Rain
1:53 AM 75.0 °F - 70.0 °F 84% 29.97 in 10.0 mi SW 8.1 mph - 0.00 in   Overcast
2:13 AM 73.9 °F - 70.0 °F 87% 29.97 in 10.0 mi SW 6.9 mph - N/A   Scattered Clouds
2:53 AM 73.9 °F - 70.0 °F 87% 29.95 in 10.0 mi South 4.6 mph - N/A   Overcast
3:15 AM 73.9 °F - 70.0 °F 87% 29.96 in 10.0 mi SSW 6.9 mph - N/A   Mostly Cloudy
3:38 AM 73.9 °F - 70.0 °F 87% 29.94 in 10.0 mi South 4.6 mph - 0.00 in Rain Light Rain
3:53 AM 73.0 °F - 70.0 °F 90% 29.93 in 8.0 mi South 5.8 mph - 0.00 in Rain Light Rain
4:11 AM 73.0 °F - 71.1 °F 93% 29.93 in 10.0 mi South 5.8 mph - 0.01 in Rain Light Rain
4:29 AM 72.0 °F - 70.0 °F 93% 29.92 in 10.0 mi SSE 4.6 mph - 0.01 in   Mostly Cloudy
4:53 AM 72.0 °F - 70.0 °F 93% 29.92 in 10.0 mi SSE 4.6 mph - 0.01 in   Mostly Cloudy
5:41 AM 71.1 °F - 70.0 °F 96% 29.92 in 9.0 mi SSE 3.5 mph - N/A   Scattered Clouds
5:43 AM 71.1 °F - 70.0 °F 96% 29.92 in 9.0 mi SE 3.5 mph - N/A   Mostly Cloudy
5:53 AM 72.0 °F - 70.0 °F 93% 29.92 in 9.0 mi South 4.6 mph - N/A   Mostly Cloudy
6:02 AM 72.0 °F - 70.0 °F 93% 29.92 in 9.0 mi SSE 4.6 mph - N/A   Mostly Cloudy
6:23 AM 72.0 °F - 70.0 °F 93% 29.92 in 8.0 mi SSE 4.6 mph - 0.00 in Rain Light Rain
6:32 AM 72.0 °F - 70.0 °F 93% 29.93 in 9.0 mi South 5.8 mph - 0.01 in   Mostly Cloudy
6:53 AM 72.0 °F - 71.1 °F 97% 29.90 in 8.0 mi SSE 6.9 mph - 0.01 in Rain Light Rain
7:08 AM 73.0 °F - 71.1 °F 93% 29.91 in 9.0 mi SSW 5.8 mph - 0.00 in   Mostly Cloudy
7:53 AM 73.0 °F - 71.1 °F 93% 29.90 in 10.0 mi South 11.5 mph - 0.00 in   Mostly Cloudy
8:49 AM 75.2 °F - 71.6 °F 89% 29.89 in 10.0 mi WSW 9.2 mph - N/A   Partly Cloudy
8:53 AM 75.0 °F - 71.1 °F 87% 29.88 in 10.0 mi WSW 10.4 mph - N/A   Clear
9:53 AM 79.0 °F - 72.0 °F 79% 29.89 in 10.0 mi SW 10.4 mph - N/A   Clear
10:53 AM 82.9 °F 89.4 °F 73.9 °F 74% 29.89 in 10.0 mi West 20.7 mph 27.6 mph N/A   Mostly Cloudy
11:38 AM 84.9 °F 92.1 °F 73.9 °F 69% 29.89 in 10.0 mi WSW 16.1 mph 26.5 mph 0.00 in Rain Light Rain
11:53 AM 86.0 °F 93.8 °F 73.9 °F 67% 29.88 in 10.0 mi SW 16.1 mph 29.9 mph 0.00 in   Mostly Cloudy
12:53 PM 84.0 °F 92.6 °F 75.9 °F 76% 29.87 in 10.0 mi WSW 15.0 mph - 0.00 in   Partly Cloudy
1:53 PM 86.0 °F 93.0 °F 73.0 °F 65% 29.85 in 10.0 mi WNW 9.2 mph - N/A   Mostly Cloudy
2:53 PM 84.9 °F 90.7 °F 72.0 °F 65% 29.85 in 10.0 mi West 16.1 mph - 0.01 in   Scattered Clouds
3:53 PM 84.9 °F 88.8 °F 69.1 °F 59% 29.85 in 10.0 mi West 13.8 mph 25.3 mph N/A   Clear
4:53 PM 82.0 °F 85.5 °F 69.1 °F 65% 29.84 in 10.0 mi West 12.7 mph 23.0 mph N/A   Clear
5:53 PM 82.0 °F 85.9 °F 70.0 °F 67% 29.81 in 10.0 mi WSW 8.1 mph - N/A   Clear
6:53 PM 79.0 °F - 70.0 °F 74% 29.83 in 10.0 mi West 5.8 mph - N/A   Clear
7:53 PM 77.0 °F - 71.1 °F 82% 29.84 in 10.0 mi West 6.9 mph - N/A   Clear
8:53 PM 75.0 °F - 71.1 °F 87% 29.87 in 10.0 mi WSW 4.6 mph - N/A   Clear
9:53 PM 73.9 °F - 71.1 °F 91% 29.90 in 10.0 mi West 6.9 mph - N/A   Clear
10:53 PM 73.9 °F - 70.0 °F 87% 29.91 in 10.0 mi WNW 5.8 mph - N/A   Clear
11:53 PM 72.0 °F - 69.1 °F 91% 29.92 in 10.0 mi WNW 5.8 mph - N/A   Clear